Location: I Balzani
(40.7833°N, 14.4833°E)
Time: 05:35:08
(UTC+00:00)

Daily predictions for brighter satellites

Satellite Brightness Start Highest point End
(mag) Time Altitude Azimuth Time Altitude Azimuth Time Altitude Azimuth
ATLAS 2AS CENTAUR R/B 4.2 00:09:45 24° WNW 00:11:18 26° NW 00:16:56 10° NNE
IDEFIX/ARIANE 42P 4.0 00:13:22 10° NNE 00:16:41 33° NE 00:16:41 33° NE
Cosmos 1980 Rocket 4.0 00:22:21 10° NW 00:24:20 22° NW 00:24:20 22° NW
COSMOS 2406 3.9 00:32:29 53° NE 00:32:29 53° NE 00:36:51 10° NNE
Cosmos 1634 Rocket 4.3 00:35:56 61° NNW 00:35:56 61° NNW 00:40:59 10° N
MSX 4.3 00:31:57 10° NNE 00:36:45 58° NE 00:36:45 58° NE
ADEOS Rocket 4.0 00:32:54 10° NNE 00:40:21 51° E 00:41:53 46° SE
CZ-2D R/B 4.2 00:38:48 10° NE 00:42:17 18° E 00:43:16 17° ESE
Cosmos 1607 4.2 00:47:22 59° NNW 00:47:22 59° NNW 00:52:55 10° NNE
USA 281 3.2 00:51:27 63° ESE 00:52:29 75° ENE 00:59:03 10° NNW
Cosmos 2360 Rocket 3.8 00:49:48 10° N 00:54:50 31° ENE 00:59:50 10° ESE
Cosmos 2333 Rocket 2.8 00:50:28 10° NNW 00:56:01 53° ENE 00:57:05 46° E
FENGYUN 3A 3.9 00:52:00 10° NNE 00:56:43 64° NE 00:56:43 64° NE
Cosmos 2082 Rocket 3.5 00:59:24 30° NW 00:59:24 30° NW 01:03:51 10° N
Cosmos 540 Rocket 4.3 01:01:37 44° E 01:01:37 44° E 01:06:00 10° NNE
Cosmos 2279 Rocket 4.1 01:03:59 66° NW 01:03:59 66° NW 01:09:43 10° N
Cosmos 2221 4.0 01:07:41 34° NNE 01:07:41 34° NNE 01:10:08 10° NNE
Cosmos 2278 4.0 01:04:10 10° NNW 01:09:50 62° ENE 01:11:11 48° ESE
Meteor 2-9 Rocket 4.4 01:04:52 10° N 01:10:08 61° ENE 01:10:20 60° E
Cosmos 2322 Rocket 3.2 01:04:52 10° NNW 01:10:16 44° ENE 01:15:03 13° SE
NPP 3.8 01:05:09 10° NNE 01:09:57 70° N 01:09:57 70° N
Cosmos 1486 Rocket 4.3 01:05:20 10° NNW 01:09:37 60° N 01:09:37 60° N
Resurs 1-4 Rocket 3.2 01:06:33 10° NNE 01:11:24 36° E 01:12:16 34° ESE
NOSS 3-3 (A) 4.0 01:14:12 54° NW 01:14:12 54° NW 01:19:44 10° NNE
ACS3 Solar Sail 2.8 01:13:42 10° N 01:18:32 31° WNW 01:18:32 31° WNW
Cosmos 1777 Rocket 4.1 01:15:56 10° NNW 01:20:41 73° N 01:20:41 73° N
Meteor 1-19 Rocket 4.1 01:22:10 81° ESE 01:22:15 81° E 01:27:50 10° NNE
Cosmos 2180 Rocket 4.3 01:22:11 70° W 01:22:16 70° W 01:28:26 10° N
CZ-4C R/B 3.7 01:22:06 18° NW 01:22:33 19° NNW 01:26:14 10° N
Cosmos 2219 Rocket 3.8 01:19:06 10° N 01:24:10 33° ENE 01:29:13 10° ESE
Cosmos 2142 Rocket 4.5 01:24:10 65° W 01:24:24 65° W 01:30:46 10° N
SL-16 R/B 2.1 01:19:42 10° NNW 01:24:53 72° WNW 01:24:53 72° WNW
H-2A R/B 3.4 01:21:26 10° NNE 01:26:04 33° E 01:27:58 25° SE
Meteor 1-11 Rocket 4.3 01:20:48 10° N 01:26:36 57° ENE 01:29:12 31° SE
Meteor 1-10 Rocket 4.2 01:29:04 67° SSE 01:29:48 78° E 01:35:35 10° NNE
NOSS 3-3 (C) 4.0 01:30:27 50° NW 01:30:39 50° NW 01:36:33 10° NNE
NOAA 11 4.0 01:26:19 10° NNE 01:31:46 87° WNW 01:32:03 81° SSW
SL-4 R/B 3.4 01:31:34 33° N 01:32:09 35° NNE 01:35:40 10° E
Meteor 1-14 Rocket 4.0 01:26:45 10° NNW 01:32:29 77° W 01:32:37 77° WSW
USA 267 3.2 01:25:56 10° NE 01:32:31 84° NW 01:34:01 57° WSW
Meteor 2-7 Rocket 4.5 01:32:52 77° W 01:32:55 77° W 01:38:25 10° N
USA 290 4.4 01:37:48 25° NNE 01:37:48 25° NNE 01:39:17 10° NNE
Cosmos 2266 Rocket 3.8 01:31:59 10° N 01:38:05 79° W 01:39:09 61° SSW
Gbstr 26 Del rocket 4.3 01:37:24 24° NNW 01:38:48 32° NNE 01:42:12 10° E
DMSP B5D2-2 4.0 01:45:23 49° SSE 01:46:49 86° ENE 01:52:02 10° NNW
Cosmos 1812 Rocket 4.2 01:49:35 44° NW 01:49:35 44° NW 01:52:58 10° N
Cosmos 2333 4.4 01:45:11 10° NNW 01:50:52 71° ENE 01:56:33 10° SSE
Meteor 2-20 Rocket 4.4 01:49:02 42° S 01:51:15 83° E 01:57:16 10° N
Cosmos 1655 Rocket 4.2 01:47:01 10° N 01:53:15 68° E 01:58:41 14° SSE
Meteor 2-4 Rocket 4.1 01:52:16 30° SSE 01:54:43 57° E 01:59:57 10° NNE
ISS -2.4 01:56:14 36° E 01:56:14 36° E 01:58:36 10° ENE
Meteor 2-20 4.4 01:54:39 51° SW 01:56:02 64° W 02:02:08 10° N
IDEFIX/ARIANE 42P 3.9 01:53:26 10° NNW 01:57:22 23° WNW 01:57:22 23° WNW
Envisat 2.9 01:55:25 10° N 02:00:28 71° WNW 02:01:23 57° SW
Aureole 1 Rocket 3.9 01:57:49 10° N 02:02:08 58° ENE 02:07:34 10° SSE
Iridium 4 Rocket 3.3 02:03:00 57° W 02:03:10 57° W 02:08:03 10° N
Cosmos 1461 3.0 02:03:16 51° SE 02:03:22 51° ESE 02:07:01 10° NE
MOZ.5/SAFIR/RUBIN 5/SL-8 4.3 02:05:32 41° WNW 02:05:32 41° WNW 02:09:17 10° NNW
Cosmos 2084 Rocket 3.8 02:01:29 10° NNW 02:05:40 63° NE 02:09:53 10° SE
Meteor 1-27 Rocket 3.7 02:03:31 40° SSW 02:05:46 83° W 02:11:44 10° N
H-2A R/B 2.1 02:06:25 74° NNW 02:06:25 74° NNW 02:09:44 10° NNW
USA 234 3.9 02:00:54 10° ESE 02:07:14 56° NE 02:13:35 10° NW
Cosmos 1842 Rocket 4.2 02:09:01 27° SSE 02:11:05 52° E 02:15:16 10° NNE
Cosmos 990 Rocket 3.9 02:08:47 10° NNW 02:13:50 60° WSW 02:15:53 34° S
Cosmos 1238 Rocket 3.3 02:15:05 33° NNW 02:15:05 33° NNW 02:16:55 10° N
ADEOS II 2.0 02:08:48 10° NNE 02:14:04 88° ESE 02:16:28 33° SSW
Cosmos 1763 Rocket 4.3 02:13:17 33° W 02:14:04 35° WNW 02:18:55 10° N
ALOS 2.3 02:14:02 10° N 02:18:31 59° WNW 02:19:31 47° WSW
SL-16 R/B 3.8 02:12:43 10° SE 02:18:32 43° ENE 02:24:23 10° N
Cosmos 841 Rocket 3.7 02:18:30 26° S 02:21:20 66° ESE 02:26:29 10° NNE
CZ-2D R/B 2.2 02:17:24 10° N 02:22:34 57° WNW 02:24:32 36° SW
ADEOS Rocket 4.3 02:18:43 10° N 02:25:27 36° WNW 02:28:49 25° WSW
Spot 2 4.3 02:23:05 26° S 02:25:45 65° WSW 02:30:40 10° NNW
Sich 1 4.3 02:23:56 10° N 02:27:51 40° ENE 02:31:45 10° SSE
Cosmos 1898 Rocket 4.0 02:26:52 10° NNW 02:31:59 62° ENE 02:37:05 10° SSE
DELTA 2 R/B (1) 4.2 02:33:08 27° SSW 02:35:31 41° SSE 02:40:41 10° E
Cosmos 1354 Rocket 4.5 02:31:27 10° NW 02:36:16 37° WSW 02:38:18 27° SW
Cosmos 1937 Rocket 4.5 02:31:29 10° N 02:36:31 49° ENE 02:41:28 10° SE
USA 281 4.5 02:38:17 19° W 02:38:17 19° W 02:42:03 10° NW
Cosmos 2360 Rocket 2.6 02:33:38 10° NW 02:38:49 38° WSW 02:43:09 14° SSW
Meteor 1-18 Rocket 4.3 02:34:35 12° S 02:39:50 78° E 02:45:24 10° NNE
Cosmos 2333 Rocket 3.5 02:35:41 10° NW 02:39:00 21° W 02:39:00 21° W
Alouette 2 Rocket 3.3 02:36:37 10° NNW 02:40:19 51° W 02:41:40 31° SSW
Cosmos 1553 Rocket 3.9 02:39:26 12° S 02:45:11 82° W 02:51:30 10° N
Meteor 2-10 Rocket 3.6 02:41:02 10° N 02:46:12 84° E 02:51:32 10° S
In-Cosmos 22 4.5 02:41:04 10° S 02:46:15 64° E 02:51:33 10° NNE
H-2A R/B 2.3 02:43:30 10° NNE 02:47:27 60° ESE 02:51:21 10° S
USA 276 3.4 02:50:08 14° N 02:50:43 17° NNE 02:51:58 10° ENE
Resurs 1-4 Rocket 3.1 02:46:31 10° N 02:51:01 29° WNW 02:53:19 21° WSW
Cosmos 2322 Rocket 3.1 02:49:25 10° NW 02:53:59 26° WSW 02:56:37 18° SW
DNEPR-1 R/B 4.4 02:51:43 10° NW 02:57:19 63° WSW 03:04:10 10° SSE
SL-24 DEB 4.5 02:53:54 10° NNE 02:58:10 89° WNW 03:02:25 10° SSW
CZ-2C R/B 3.4 02:54:15 10° NNE 02:58:52 45° E 03:03:20 10° S
Cosmos 1766 Rocket 4.3 02:55:43 10° NNW 02:59:31 30° W 03:01:40 20° SW
H-2A R/B 3.0 03:00:47 10° N 03:05:15 31° WNW 03:08:28 17° WSW
SL-14 R/B 3.2 03:03:23 12° SSW 03:06:53 64° W 03:10:45 10° N
Cosmos 2219 Rocket 2.7 03:02:59 10° NW 03:08:04 36° WSW 03:13:09 10° S
Cosmos 2237 Rocket 4.3 03:03:09 10° N 03:08:12 31° ENE 03:13:11 10° ESE
SL-4 R/B 2.2 03:05:58 10° WNW 03:09:36 40° SW 03:13:06 10° SSE
SL-08 RB Rocket 3.6 03:06:42 10° NNE 03:11:08 88° ESE 03:15:35 10° SSW
CZ-3 Stage 3 4.3 03:05:05 16° WSW 03:12:00 52° S 03:41:30 10° ESE
USA 267 4.4 03:09:18 10° NE 03:14:58 32° NNW 03:20:38 10° W
ARGOS 3.3 03:11:10 10° N 03:16:25 55° WNW 03:21:37 10° SSW
Cosmos 1939 Rocket 4.4 03:13:33 10° NNE 03:16:53 33° E 03:20:13 10° SSE
Cosmos 1408 Rocket 3.5 03:13:31 10° N 03:17:49 88° E 03:22:04 10° S
Cosmos 1745 Rocket 4.0 03:12:32 10° N 03:18:44 87° E 03:24:50 10° S
Cosmos 2227 Rocket 4.2 03:15:02 10° SSE 03:19:42 27° ESE 03:24:24 10° NE
Gbstr 26 Del rocket 3.1 03:21:35 10° WNW 03:25:01 38° SW 03:28:40 10° SSE
SL-24 R/B 3.7 03:22:31 10° N 03:26:35 83° WNW 03:30:18 10° SSW
Cosmos 2322 3.7 03:22:54 10° NNW 03:28:35 69° WSW 03:34:12 10° SSE
USA 307 4.3 03:29:31 10° SSE 03:31:23 17° ESE 03:33:41 10° ENE
UNK 4.3 03:27:31 10° SSE 03:32:02 63° ENE 03:36:34 10° N
ISS -2.2 03:29:23 10° W 03:32:17 26° NNW 03:35:14 10° NE
BREEZE-M DEB (TANK) 3.2 03:32:14 10° W 03:37:46 35° NNW 03:40:24 10° NE
Meteor 1-28 Rocket 2.7 03:38:03 10° S 03:41:19 84° W 03:44:35 10° NNW
NOSS 3-4 (A) 4.5 03:40:03 10° NW 03:46:31 36° WSW 03:53:51 10° S
NOSS 3-4 (C) 4.5 03:40:35 10° NW 03:47:05 37° WSW 03:54:26 10° S
